Regional Weather Roundup
Issued by NWS Green Bay, WI

Home | Current Version | Previous Version | Graphics & Text | Print | Product List | Glossary Off
Versions: 1 2 3 4 5 6 7 8 9 10 11 12 13 14 15 16 17 18 19 20 21 22 23 24 25 26 27 28 29 30 31 32 33 34 35 36 37 38 39 40 41 42 43 44 45 46 47 48 49 50

000
ASUS43 KGRB 060710
RWRGRB

NORTH-CENTRAL AND NORTHEAST WISCONSIN REGIONAL WEATHER ROUNDUP
NATIONAL WEATHER SERVICE GREEN BAY WI
100 AM CST FRI MAR 06 2015

WIZ005-009-010>012-018-019-060800-
NORTH CENTRAL WISCONSIN

CITY           SKY/WX    TMP DP  RH WIND       PRES   REMARKS
IRONWOOD       CLEAR      5  -2  72 SW13      30.15F WCI -12
MANITOWISH WTR CLEAR     -1  -7  73 SW6       30.18F WCI -12
ARBOR VITAE    CLEAR     -1  -8  71 SW5       30.19F WCI -11
EAGLE RIVER    PTCLDY    -2 -12  62 CALM      30.19F
LAND O LAKES   CLEAR     -1  -9  68 SW6       30.19F WCI -12
RHINELANDER    PTCLDY    -1 -11  62 SW9       30.22F WCI -16
PHILLIPS       CLEAR     -2  -8  74 SW5       30.21F WCI -12
ANTIGO         PTCLDY    -4 -11  71 SW6       30.26F WCI -17
TOMAHAWK       PTCLDY    -5 -12  74 CALM      30.25F
MERRILL        PTCLDY    -8 -14  75 CALM      30.28F
$$

WIZ013-073-060800-
NORTHEAST WISCONSIN

CITY           SKY/WX    TMP DP  RH WIND       PRES   REMARKS
IRON MOUNTAIN  CLEAR      3 -10  54 SW9       30.24F WCI -12
MARINETTE      PTCLDY     3  -9  55 SW7       30.35S WCI  -9
OCONTO         PTCLDY    -5 -12  72 CALM      30.37F
$$

WIZ017-030-035>037-045-060800-
CENTRAL WISCONSIN

CITY           SKY/WX    TMP DP  RH WIND       PRES   REMARKS
MEDFORD        PTCLDY    -1  -8  74 S6        30.25F WCI -13
WAUSAU         PTCLDY     1  -9  62 S5        30.29F WCI  -9
MOSINEE        PTCLDY    -2  -8  78 SW7       30.31F WCI -16
MARSHFIELD     PTCLDY    -1  -8  72 SW8       30.30F WCI -15
WISC RAPIDS    PTCLDY     0  -8  69 S6        30.37F WCI -12
STEVENS POINT  PTCLDY    -1  -8  72 S6        30.34F WCI -13
WAUPACA        PTCLDY     5  -6  61 SW5       30.39F WCI  -4
SHAWANO        PTCLDY     4  -7  61 CALM      30.36F
CLINTONVILLE   PTCLDY     1  -8  66 SW6       30.37S WCI -10
$$

WIZ038-039-048-051-060800-
FOX VALLEY

CITY           SKY/WX    TMP DP  RH WIND       PRES   REMARKS
NWS GREEN BAY  PTCLDY     4  -7  60 SW7       30.39F WCI  -8
APPLETON       PTCLDY     5  -8  56 SW8       30.38F WCI  -8
OSHKOSH        MOCLDY     3  -6  66 SW6       30.39F WCI  -8
FOND DU LAC    MOCLDY     4  -5  66 SW9       30.41F WCI -10
$$

WIZ022-050-052-060800-
EAST CENTRAL WISCONSIN

CITY           SKY/WX    TMP DP  RH WIND       PRES   REMARKS
STURGEON BAY   PTCLDY     5  -9  51 SW7       30.37F WCI  -7
MANITOWOC      PTCLDY     3  -5  69 CALM      30.41F
SHEBOYGAN      PTCLDY     1  -7  68 SW10      30.42F WCI -15
$$

LMZ563-521-522-541>543-060800-
LAKESHORE

STATION/POSITION TIME  TEMP    WIND        PRES    VSBY  WAVE
                       AIR SEA DIR/SP/G                  HT/PER
                 (UTC) (F)     (DEG/KT/KT) (MB)    (MI)  (FT/S)
SHEBOYGAN LKSHOR 0700    7     230/ 10/ 11 1032.3F
KEWAUNEE LKSHORE 0700          240/  3/  8 1028.3F
NORTHPORT PIER   0700    8     240/  5/ 12 1027.4F
SISTER BAY LKSHO 0600    6     250/ 11/ 12   N/A
CHAMBERS ISLAND  0700    4     170/  3/  8 1027.8F
MENOMINEE LKSHOR 0700          210/  9     1028.6F
$$


USA.gov is the U.S. government's official web portal to all federal, state and local government web resources and services.